2023/03/07 00:00:00,49.3,-1.0
2023/03/07 00:10:00,49.3,-1.2
2023/03/07 00:20:00,49.3,-0.7
2023/03/07 00:30:00,49.3,-1.4
2023/03/07 00:40:00,49.3,-1.3
2023/03/07 00:50:00,49.3,-1.1
2023/03/07 01:00:00,49.3,-1.2
2023/03/07 01:10:00,49.3,-1.2
2023/03/07 01:20:00,49.3,-1.1
2023/03/07 01:30:00,49.3,-1.5
2023/03/07 01:40:00,49.3,-1.4
2023/03/07 01:50:00,49.3,-1.3
2023/03/07 02:00:00,49.3,-1.4
2023/03/07 02:10:00,49.3,-1.3
2023/03/07 02:20:00,49.3,-1.6
2023/03/07 02:30:00,49.3,-1.5
2023/03/07 02:40:00,49.4,-1.6
2023/03/07 02:50:00,49.3,-1.6
2023/03/07 03:00:00,49.4,-1.7
2023/03/07 03:10:00,49.4,-1.7
2023/03/07 03:20:00,49.4,-1.6
2023/03/07 03:30:00,49.4,-1.7
2023/03/07 03:40:00,49.4,-1.6
2023/03/07 03:50:00,49.4,-1.2
2023/03/07 04:00:00,49.4,-1.6
2023/03/07 04:10:00,49.4,-1.9
2023/03/07 04:20:00,49.4,-1.7
2023/03/07 04:30:00,49.5,-1.7
2023/03/07 04:40:00,49.4,-1.7
2023/03/07 04:50:00,49.4,-1.9
2023/03/07 05:00:00,49.4,-1.8
2023/03/07 05:10:00,49.4,-2.0
2023/03/07 05:20:00,49.4,-2.0
2023/03/07 05:30:00,49.4,-2.1
2023/03/07 05:40:00,49.4,-2.0
2023/03/07 05:50:00,49.4,-2.0
2023/03/07 06:00:00,49.4,-2.1
2023/03/07 06:10:00,49.4,-1.9
2023/03/07 06:20:00,49.4,-2.0
2023/03/07 06:30:00,49.4,-2.2
2023/03/07 06:40:00,49.4,-2.2
2023/03/07 06:50:00,49.4,-1.8
2023/03/07 07:00:00,49.5,-1.7
2023/03/07 07:10:00,49.5,-1.2
2023/03/07 07:20:00,49.6,-1.1
2023/03/07 07:30:00,49.6,-0.7
2023/03/07 07:40:00,49.6,-0.6
2023/03/07 07:50:00,49.5, 0.8
2023/03/07 08:00:00,49.5, 2.1
2023/03/07 08:10:00,49.6, 3.4
2023/03/07 08:20:00,49.4, 3.8
2023/03/07 08:30:00,49.4, 5.8
2023/03/07 08:40:00,49.2, 7.4
2023/03/07 08:50:00,49.0, 8.6
2023/03/07 09:00:00,48.8, 9.7
2023/03/07 09:10:00,48.7,10.2
2023/03/07 09:20:00,48.9,11.3
2023/03/07 09:30:00,48.9,12.2
2023/03/07 09:40:00,49.1,13.1
2023/03/07 09:50:00,49.3,14.0
2023/03/07 10:00:00,49.2,14.7
2023/03/07 10:10:00,48.8,14.8
2023/03/07 10:20:00,48.7,14.2
2023/03/07 10:30:00,48.6,14.5
2023/03/07 10:40:00,48.2,15.4
2023/03/07 10:50:00,48.0,15.9
2023/03/07 11:00:00,47.8,16.6
2023/03/07 11:10:00,47.9,17.3
2023/03/07 11:20:00,47.7,17.2
2023/03/07 11:30:00,47.5,17.8
2023/03/07 11:40:00,47.7,19.0
2023/03/07 11:50:00,47.5,19.1
2023/03/07 12:00:00,47.3,19.0
2023/03/07 12:10:00,47.1,17.5
2023/03/07 12:20:00,47.1,17.4
2023/03/07 12:30:00,47.0,16.9
2023/03/07 12:40:00,46.8,18.0
2023/03/07 12:50:00,46.8,18.0
2023/03/07 13:00:00,46.7,18.9
2023/03/07 13:10:00,46.6,18.5
2023/03/07 13:20:00,46.5,19.2
2023/03/07 13:30:00,46.5,21.5
2023/03/07 13:40:00,46.1,21.9
2023/03/07 13:50:00,45.8,20.9
2023/03/07 14:00:00,45.6,22.5
2023/03/07 14:10:00,45.5,24.5
2023/03/07 14:20:00,45.4,24.8
2023/03/07 14:30:00,45.3,27.2
2023/03/07 14:40:00,45.2,25.0
2023/03/07 14:50:00,45.1,23.6
2023/03/07 15:00:00,45.2,21.2
2023/03/07 15:10:00,45.3,22.4
2023/03/07 15:20:00,45.1,23.3
2023/03/07 15:30:00,44.8,23.9
2023/03/07 15:40:00,44.7,23.3
2023/03/07 15:50:00,44.5,22.8
2023/03/07 16:00:00,44.5,25.1
2023/03/07 16:10:00,44.3,21.7
2023/03/07 16:20:00,44.1,23.8
2023/03/07 16:30:00,43.9,21.8
2023/03/07 16:40:00,43.8,20.9
2023/03/07 16:50:00,44.0,17.4
2023/03/07 17:00:00,44.1,15.8
2023/03/07 17:10:00,44.1,12.7
2023/03/07 17:20:00,44.1,10.3
2023/03/07 17:30:00,44.0, 8.8
2023/03/07 17:40:00,43.9, 7.4
2023/03/07 17:50:00,43.9, 6.5
2023/03/07 18:00:00,44.0, 5.8
2023/03/07 18:10:00,44.1, 5.1
2023/03/07 18:20:00,44.3, 4.8
2023/03/07 18:30:00,44.1, 4.4
2023/03/07 18:40:00,43.8, 3.8
2023/03/07 18:50:00,43.8, 3.7
2023/03/07 19:00:00,43.8, 3.4
2023/03/07 19:10:00,43.9, 3.4
2023/03/07 19:20:00,43.9, 3.1
2023/03/07 19:30:00,43.9, 3.1
2023/03/07 19:40:00,43.9, 2.8
2023/03/07 19:50:00,43.9, 2.8
2023/03/07 20:00:00,43.9, 3.4
2023/03/07 20:10:00,43.9, 2.6
2023/03/07 20:20:00,43.9, 2.6
2023/03/07 20:30:00,44.0, 2.4
2023/03/07 20:40:00,44.0, 2.6
2023/03/07 20:50:00,44.0, 2.4
2023/03/07 21:00:00,44.0, 2.5
2023/03/07 21:10:00,44.0, 2.4
2023/03/07 21:20:00,44.1, 2.2
2023/03/07 21:30:00,44.1, 2.4
2023/03/07 21:40:00,44.1, 2.4
2023/03/07 21:50:00,44.1, 2.4
2023/03/07 22:00:00,44.1, 2.1
2023/03/07 22:10:00,44.2, 2.1
2023/03/07 22:20:00,44.2, 2.2
2023/03/07 22:30:00,44.2, 1.9
2023/03/07 22:40:00,44.2, 1.9
2023/03/07 22:50:00,44.2, 1.7
2023/03/07 23:00:00,44.1, 1.8
2023/03/07 23:10:00,44.2, 1.9
2023/03/07 23:20:00,44.2, 1.8
2023/03/07 23:30:00,44.2, 1.6
2023/03/07 23:40:00,44.2, 1.8
2023/03/07 23:50:00,44.2, 2.2
